Regional Weather Roundup
Issued by NWS

Home | Current Version | Previous Version | Graphics & Text | Print | Product List | Glossary On
Versions: 1 2 3 4 5 6 7 8 9 10 11 12 13 14 15 16 17 18 19 20 21 22 23 24 25 26 27 28 29 30 31 32 33 34 35 36 37 38 39 40 41 42 43 44 45 46 47 48 49 50
000
ASUS43 KIND 281359
RWRIN

WEATHER ROUNDUP FOR INDIANA
NATIONAL WEATHER SERVICE INDIANAPOLIS IN
900 AM EST FRI NOV 28 2014

NOTE: "FAIR" INDICATES FEW OR NO CLOUDS BELOW 12,000 FEET WITH NO
SIGNIFICANT WEATHER AND/OR OBSTRUCTIONS TO VISIBILITY.

* - STATION DOES NOT REPORT WEATHER SUCH AS PRECIPITATION OR FOG.

+ - STATION NOT QUALITY CONTROLLED BY THE NATIONAL WEATHER SERVICE.
    USE DATA WITH CAUTION...ESPECIALLY DEWPOINT AND RELATIVE
    HUMIDITY OBSERVATIONS.

INZ001>003-010>013-019-020-281500-
NORTHWEST INDIANA

CITY           SKY/WX    TMP DP  RH WIND       PRES   REMARKS
GARY /AIRPORT/ CLOUDY    23  14  68 SW6       30.31S WCI  16
VALPARAISO     NOT AVBL

$$

LMZ046-743>745-281500-
SOUTHERN LAKE MICHIGAN

STATION/POSITION TIME  TEMP WIND        PRES
                       AIR  DIR/SP/G
                 (UTC) (F)  (DEG/KT/KT) (MB)
MICHIGAN CITY    1300   21  160/  8/ 11   N/A

$$

INZ004-005-014>016-021>024-281500-
NORTH CENTRAL INDIANA

CITY           SKY/WX    TMP DP  RH WIND       PRES   REMARKS
GOSHEN         CLOUDY    21  15  78 S7        30.31F WCI  12
SOUTH BEND     CLOUDY    21  15  78 S10       30.30F WCI  10

$$

INZ006>009-017-018-025>027-281500-
NORTHEAST INDIANA

CITY           SKY/WX    TMP DP  RH WIND       PRES   REMARKS
ANGOLA *+      MOSUNNY   19  16  86 S7        30.29F WCI  10
FORT WAYNE     CLOUDY    23  15  71 SE7       30.34F WCI  15

$$

INZ028-029-035-036-043>045-051>053-281500-
WEST CENTRAL INDIANA

CITY           SKY/WX    TMP DP  RH WIND       PRES   REMARKS
GREENCASTLE +  PTSUNNY   23  18  80 S7        30.34F WCI  15
LAFAYETTE      CLOUDY    22  18  85 S7        30.33F WCI  13
TERRE HAUTE    PTSUNNY   23  18  81 SE8       30.36S WCI  14

$$

INZ030>032-037>040-046>048-054>057-064-065-281500-
CENTRAL INDIANA

CITY           SKY/WX    TMP DP  RH WIND       PRES   REMARKS
ANDERSON       CLOUDY    23  18  80 SE12      30.35  WCI  12
INDIANAPOLIS   CLOUDY    22  16  78 S8        30.34F WCI  12
-EAGLE CREEK   CLOUDY    22  17  81 S8        30.34F WCI  12
KOKOMO *+      PTSUNNY   23  18  80 S8        30.33F WCI  14
MT COMFORT *+  PTSUNNY   25  16  68 SW9       30.36S WCI  15
SHELBYVILLE    CLOUDY    26  19  74 SW10      30.36S WCI  16

$$

INZ033-034-041-042-049-050-058-059-281500-
EAST CENTRAL INDIANA

CITY           SKY/WX    TMP DP  RH WIND       PRES   REMARKS
MUNCIE         CLOUDY    23  16  74 S6        30.33F WCI  16

$$

INZ060-061-067>069-081>083-085>088-281500-
SOUTHWEST INDIANA

CITY           SKY/WX    TMP DP  RH WIND       PRES   REMARKS
EVANSVILLE     MOSUNNY   29  23  78 S7        30.39F WCI  22
HUNTINGBURG *+ PTSUNNY   27  19  74 SE6       30.39F WCI  20

$$

INZ062-063-066-070>080-084-089>092-281500-
SOUTH CENTRAL AND SOUTHEAST INDIANA

CITY           SKY/WX    TMP DP  RH WIND       PRES   REMARKS
BLOOMINGTON    CLOUDY    23  19  85 S7        30.35F WCI  15
SEYMOUR +      PTSUNNY   28  21  74 SW5       30.39F WCI  23

$$




USA.gov is the U.S. government's official web portal to all federal, state and local government web resources and services.